KA8DUX-2 Weather Reports


Display with metric or nautical units.
time (UTC)temp
F
wind
direction
speed
MPH
gust
MPH
rain 1hr
in
rain 24hr
in
rain mn
in
humidity
%
barometer
mb
20260831080127 69 125 0.0 0.0 0.00 0.00 0.00 97 1014.2
20260831075623 69 125 0.0 0.0 0.00 0.00 0.00 97 1014.4
20260831075119 69 131 0.0 0.0 0.00 0.00 0.00 97 1014.3
20260831074618 69 123 0.0 0.0 0.00 0.00 0.00 97 1014.3
20260831074113 69 127 0.0 0.0 0.00 0.00 0.00 97 1014.4
20260831073608 69 128 0.0 0.0 0.00 0.00 0.00 96 1014.3
20260831073107 69 150 0.0 1.0 0.00 0.00 0.00 96 1014.5
20260831072602 69 128 0.0 0.0 0.00 0.00 0.00 96 1014.4
20260831072100 69 126 0.0 0.0 0.00 0.00 0.00 96 1014.4
20260831071557 69 128 0.0 0.0 0.00 0.00 0.00 96 1014.5
20260831071053 69 131 0.0 0.0 0.00 0.00 0.00 96 1014.6
20260831070552 69 131 0.0 0.0 0.00 0.00 0.00 95 1014.6
20260831070047 69 131 0.0 0.0 0.00 0.00 0.00 95 1014.7
20260831065544 69 132 0.0 0.0 0.00 0.00 0.00 95 1014.6
20260831065039 69 124 0.0 0.0 0.00 0.00 0.00 95 1014.6
20260831064534 69 152 0.0 0.0 0.00 0.00 0.00 95 1014.3
20260831064030 69 128 0.0 0.0 0.00 0.00 0.00 95 1014.2
20260831063525 69 121 0.0 0.0 0.00 0.00 0.00 95 1014.0
20260831063020 69 113 0.0 0.0 0.00 0.00 0.00 95 1014.2
20260831062515 69 126 0.0 0.0 0.00 0.00 0.00 95 1014.1
20260831062014 69 125 0.0 0.0 0.00 0.00 0.00 95 1014.2
20260831061512 69 118 0.0 0.0 0.00 0.00 0.00 95 1014.3
20260831061009 69 134 0.0 0.0 0.00 0.00 0.00 95 1014.2
20260831060508 69 125 0.0 0.0 0.00 0.00 0.00 95 1014.3
20260831060004 69 123 0.0 0.0 0.00 0.00 0.00 95 1014.5
20260831055458 69 109 0.0 0.0 0.00 0.00 0.00 95 1014.5
20260831054954 69 119 0.0 0.0 0.00 0.00 0.00 95 1014.4
20260831054454 69 125 0.0 0.0 0.00 0.00 0.00 95 1014.4
20260831053953 69 124 0.0 0.0 0.00 0.00 0.00 95 1014.2
20260831053451 69 127 0.0 0.0 0.00 0.00 0.00 95 1014.3
20260831052946 70 125 0.0 0.0 0.00 0.00 0.00 95 1014.3
20260831052445 69 121 0.0 0.0 0.00 0.00 0.00 95 1014.5
20260831051944 69 122 0.0 0.0 0.00 0.00 0.00 95 1014.6
20260831051443 69 124 0.0 0.0 0.00 0.00 0.00 95 1014.6
20260831050937 70 128 0.0 0.0 0.00 0.00 0.00 95 1014.5
20260831050437 70 127 0.0 0.0 0.00 0.00 0.00 95 1014.6
20260831045936 70 125 0.0 0.0 0.00 0.00 0.00 95 1014.6
20260831045435 70 125 0.0 0.0 0.00 0.00 0.00 95 1014.9
20260831044930 70 125 0.0 0.0 0.00 0.00 0.00 95 1014.7
20260831044426 70 125 0.0 0.0 0.00 0.00 0.00 95 1014.9
20260831043921 70 125 0.0 0.0 0.00 0.00 0.00 94 1014.6
20260831043421 70 125 0.0 0.0 0.00 0.00 0.00 94 1014.6
20260831042917 70 126 0.0 0.0 0.00 0.00 0.00 94 1014.6
20260831042416 70 125 0.0 0.0 0.00 0.00 0.00 94 1014.7
20260831041911 70 125 0.0 0.0 0.00 0.00 0.00 93 1014.8
20260831041410 70 131 0.0 0.0 0.00 0.00 0.00 93 1014.4
20260831040906 70 124 0.0 0.0 0.00 0.00 0.00 93 1014.6
20260831040400 71 126 0.0 0.0 0.00 0.00 0.00 93 1014.6
20260831035858 71 121 0.0 0.0 0.00 0.00 0.00 93 1014.5
20260831035357 71 131 0.0 0.0 0.00 0.00 0.00 93 1014.5
20260831034852 71 155 0.0 0.0 0.00 0.00 0.00 93 1014.7
20260831034347 71 133 0.0 0.0 0.00 0.00 0.00 93 1014.6
20260831033842 71 133 0.0 0.0 0.00 0.00 0.00 93 1014.6
20260831033343 71 130 0.0 0.0 0.00 0.00 0.00 93 1014.5
20260831032838 71 118 0.0 0.0 0.00 0.00 0.00 93 1014.6
20260831032332 71 126 0.0 0.0 0.00 0.00 0.00 93 1014.6
20260831031828 71 129 0.0 0.0 0.00 0.00 0.00 92 1014.8
20260831031326 71 130 0.0 0.0 0.00 0.00 0.00 92 1014.7
20260831030822 72 126 0.0 0.0 0.00 0.00 0.00 91 1014.6
20260831030319 72 129 0.0 0.0 0.00 0.00 0.00 91 1014.7
20260831025814 72 128 0.0 0.0 0.00 0.00 0.00 90 1014.8
20260831025308 72 127 0.0 0.0 0.00 0.00 0.00 90 1014.7
20260831024804 72 130 0.0 0.0 0.00 0.00 0.00 89 1014.8
20260831024303 73 125 0.0 0.0 0.00 0.00 0.00 89 1014.4
20260831023802 73 166 0.0 0.0 0.00 0.00 0.00 88 1014.4
20260831023300 73 130 0.0 0.0 0.00 0.00 0.00 88 1014.0
20260831022756 73 132 0.0 0.0 0.00 0.00 0.00 88 1014.3
20260831022255 73 132 0.0 0.0 0.00 0.00 0.00 88 1014.2
20260831021750 73 138 0.0 0.0 0.00 0.00 0.00 87 1014.2
20260831021250 73 145 0.0 0.0 0.00 0.00 0.00 88 1014.2
20260831020747 74 144 0.0 0.0 0.00 0.00 0.00 87 1014.3
20260831020245 74 130 0.0 0.0 0.00 0.00 0.00 87 1014.4
20260831015741 74 145 1.0 1.0 0.00 0.00 0.00 87 1014.2
20260831015236 74 133 0.0 0.0 0.00 0.00 0.00 87 1014.5
20260831014731 74 158 0.0 0.0 0.00 0.00 0.00 87 1014.3
20260831014226 74 129 0.0 1.0 0.00 0.00 0.00 87 1014.0
20260831013722 74 125 0.0 1.0 0.00 0.00 0.00 86 1014.2
20260831013221 74 131 0.0 0.0 0.00 0.00 0.00 87 1014.4
20260831012716 74 150 0.0 0.0 0.00 0.00 0.00 86 1014.2
20260831012212 74 145 0.0 1.0 0.00 0.00 0.00 86 1014.0
20260831011711 74 150 1.0 1.0 0.00 0.00 0.00 86 1013.9
20260831011207 74 135 0.0 0.0 0.00 0.00 0.00 86 1013.9
20260831010703 75 143 0.0 0.0 0.00 0.00 0.00 86 1014.0
20260831010157 74 167 1.0 1.0 0.00 0.00 0.00 86 1013.7
20260831005657 75 137 0.0 0.0 0.00 0.00 0.00 86 1013.7
20260831005153 75 130 0.0 0.0 0.00 0.00 0.00 85 1013.7
20260831004648 75 135 0.0 0.0 0.00 0.00 0.00 85 1013.7
20260831004144 75 241 1.0 2.0 0.00 0.00 0.00 85 1013.7
20260831003640 75 169 2.0 2.0 0.00 0.00 0.00 84 1013.6
20260831003136 75 245 3.0 3.0 0.00 0.00 0.00 84 1013.4
20260831002634 75 138 0.0 1.0 0.00 0.00 0.00 84 1013.7
20260831002129 75 212 2.0 2.0 0.00 0.00 0.00 84 1013.5
20260831001625 75 195 2.0 2.0 0.00 0.00 0.00 84 1013.5
20260831001121 76 218 2.0 2.0 0.00 0.00 0.00 83 1013.5
20260831000618 76 226 1.0 2.0 0.00 0.00 0.00 83 1013.6
20260831000117 76 229 4.0 5.0 0.00 0.00 0.00 82 1013.7
20260830235616 76 271 1.0 1.0 0.00 0.00 0.00 82 1013.8
20260830235111 76 237 1.0 2.0 0.00 0.00 0.00 82 1013.8
20260830234606 77 148 1.0 1.0 0.00 0.00 0.00 81 1013.9
20260830234101 77 178 1.0 1.0 0.00 0.00 0.00 81 1013.4
20260830233556 77 243 2.0 3.0 0.00 0.00 0.00 80 1013.7
20260830233052 77 229 4.0 6.0 0.00 0.00 0.00 80 1013.6
20260830232548 77 200 2.0 2.0 0.00 0.00 0.00 79 1013.8
20260830232044 78 166 3.0 5.0 0.00 0.00 0.00 79 1013.7
20260830231539 78 162 2.0 3.0 0.00 0.00 0.00 78 1013.4
20260830231038 78 195 1.0 1.0 0.00 0.00 0.00 78 1013.4
20260830230534 78 160 0.0 1.0 0.00 0.00 0.00 77 1013.4
20260830230029 78 224 4.0 6.0 0.00 0.00 0.00 76 1013.3
20260830225524 78 226 3.0 5.0 0.00 0.00 0.00 76 1013.6
20260830225023 79 85 3.0 5.0 0.00 0.00 0.00 76 1013.3
20260830224522 79 247 2.0 2.0 0.00 0.00 0.00 75 1013.5
20260830224019 79 184 6.0 14.0 0.00 0.00 0.00 74 1013.7
20260830223516 79 161 3.0 6.0 0.00 0.00 0.00 74 1013.8
20260830223015 79 231 5.0 6.0 0.00 0.00 0.00 73 1013.8
20260830222510 80 218 4.0 6.0 0.00 0.00 0.00 72 1013.6
20260830222006 80 147 1.0 2.0 0.00 0.00 0.00 71 1013.9
20260830221501 80 182 1.0 2.0 0.00 0.00 0.00 71 1013.7
20260830220952 81 163 4.0 6.0 0.00 0.00 0.00 69 1013.7
20260830220451 81 170 2.0 2.0 0.00 0.00 0.00 69 1013.6
20260830215949 81 270 5.0 7.0 0.00 0.00 0.00 68 1013.5
20260830215444 82 158 2.0 2.0 0.00 0.00 0.00 67 1013.4
20260830214938 82 281 10.0 14.0 0.00 0.00 0.00 65 1013.9
20260830214434 83 209 0.0 1.0 0.00 0.00 0.00 65 1013.7
20260830213928 83 331 3.0 6.0 0.00 0.00 0.00 64 1013.8
20260830213424 83 138 2.0 5.0 0.00 0.00 0.00 64 1013.7
20260830212920 83 197 3.0 3.0 0.00 0.00 0.00 64 1013.7
20260830212415 84 206 2.0 5.0 0.00 0.00 0.00 64 1013.6
20260830211914 85 133 0.0 1.0 0.00 0.00 0.00 63 1013.7
20260830211409 86 144 3.0 5.0 0.00 0.00 0.00 62 1013.6
20260830210905 86 243 4.0 6.0 0.00 0.00 0.00 61 1013.8
20260830210403 85 226 5.0 7.0 0.00 0.00 0.00 61 1013.8
20260830205901 85 132 2.0 2.0 0.00 0.00 0.00 61 1013.7
20260830205400 85 205 3.0 5.0 0.00 0.00 0.00 63 1013.8
20260830204856 85 242 3.0 5.0 0.00 0.00 0.00 62 1013.7
20260830204354 86 257 2.0 3.0 0.00 0.00 0.00 61 1013.9
20260830203850 87 173 3.0 3.0 0.00 0.00 0.00 60 1014.0
20260830203347 86 246 4.0 6.0 0.00 0.00 0.00 60 1013.4
20260830202846 86 176 3.0 5.0 0.00 0.00 0.00 62 1014.0
20260830202341 86 190 4.0 5.0 0.00 0.00 0.00 62 1014.0
20260830201836 86 175 3.0 5.0 0.00 0.00 0.00 62 1014.0
20260830201331 85 140 4.0 8.0 0.00 0.00 0.00 63 1014.0
20260830200826 85 188 5.0 6.0 0.00 0.00 0.00 63 1014.0
20260830200326 85 178 1.0 1.0 0.00 0.00 0.00 65 1014.3
20260830195821 85 132 2.0 5.0 0.00 0.00 0.00 65 1013.9
20260830195320 86 187 2.0 3.0 0.00 0.00 0.00 66 1014.0
20260830194819 86 177 2.0 2.0 0.00 0.00 0.00 66 1014.0
20260830194312 85 213 1.0 2.0 0.00 0.00 0.00 67 1013.9
20260830193808 84 194 3.0 5.0 0.00 0.00 0.00 67 1014.1
20260830193307 84 151 2.0 3.0 0.00 0.00 0.00 68 1014.0
20260830192804 85 244 3.0 6.0 0.00 0.00 0.00 66 1014.1
20260830192257 85 130 2.0 2.0 0.00 0.00 0.00 68 1014.0
20260830191754 84 229 3.0 5.0 0.00 0.00 0.00 69 1013.9
20260830191253 83 112 3.0 3.0 0.00 0.00 0.00 71 1013.8
20260830190749 84 207 1.0 1.0 0.00 0.00 0.00 71 1013.8
20260830190244 83 294 3.0 3.0 0.00 0.00 0.00 71 1013.8
20260830185742 82 221 2.0 2.0 0.00 0.00 0.00 72 1013.8
20260830185238 82 26 1.0 2.0 0.00 0.00 0.00 72 1013.6
20260830184737 83 173 3.0 3.0 0.00 0.00 0.00 71 1013.7
20260830184237 82 145 0.0 1.0 0.00 0.00 0.00 74 1013.7
20260830183732 82 158 2.0 2.0 0.00 0.00 0.00 73 1013.8
20260830183227 82 176 1.0 2.0 0.00 0.00 0.00 72 1013.7
20260830182722 81 226 2.0 2.0 0.00 0.00 0.00 73 1013.8
20260830182218 80 195 3.0 5.0 0.00 0.00 0.00 75 1013.6
20260830181714 80 186 5.0 7.0 0.00 0.00 0.00 74 1013.7
20260830181209 80 82 2.0 3.0 0.00 0.00 0.00 75 1013.6
20260830180707 81 99 2.0 3.0 0.00 0.00 0.00 74 1013.8
20260830180203 80 238 2.0 3.0 0.00 0.00 0.00 75 1013.5
20260830175702 80 214 3.0 5.0 0.00 0.00 0.00 74 1013.6
20260830175156 80 186 3.0 3.0 0.00 0.00 0.00 76 1013.5
20260830174652 78 122 2.0 2.0 0.00 0.00 0.00 77 1013.7
20260830174147 78 177 2.0 3.0 0.00 0.00 0.00 78 1013.8
20260830173642 78 199 5.0 6.0 0.00 0.00 0.00 78 1014.0
20260830173137 78 103 3.0 6.0 0.00 0.00 0.00 80 1013.8
20260830172634 79 211 3.0 5.0 0.00 0.00 0.00 78 1013.7
20260830172131 78 145 5.0 8.0 0.00 0.00 0.00 78 1013.9
20260830171630 78 122 1.0 2.0 0.00 0.00 0.00 80 1014.1
20260830171125 78 217 1.0 3.0 0.00 0.00 0.00 80 1014.1
20260830170620 77 183 0.0 1.0 0.00 0.00 0.00 82 1014.2
20260830170119 76 170 4.0 6.0 0.00 0.00 0.00 82 1014.2
20260830165614 75 178 2.0 2.0 0.00 0.00 0.00 84 1014.2
20260830165109 75 351 2.0 2.0 0.00 0.00 0.00 85 1014.5
20260830164606 74 134 0.0 2.0 0.00 0.00 0.00 87 1014.6
20260830164101 74 190 2.0 2.0 0.00 0.00 0.00 86 1014.5
20260830163558 75 249 4.0 6.0 0.00 0.00 0.00 85 1014.5
20260830163057 74 201 2.0 3.0 0.00 0.00 0.00 88 1014.7
20260830162553 73 225 3.0 5.0 0.00 0.00 0.00 89 1014.9
20260830162048 73 147 1.0 3.0 0.00 0.00 0.00 91 1014.7
20260830161542 72 167 2.0 3.0 0.00 0.00 0.00 92 1014.8
20260830161037 72 180 3.0 7.0 0.00 0.00 0.00 94 1014.7
20260830160534 71 188 2.0 3.0 0.00 0.00 0.00 95 1014.7
20260830160029 70 203 0.0 1.0 0.00 0.00 0.00 97 1014.5
20260830155525 69 210 1.0 2.0 0.00 0.00 0.00 97 1014.8
20260830155020 69 190 2.0 3.0 0.00 0.00 0.00 98 1014.7
20260830154515 68 220 2.0 5.0 0.00 0.00 0.00 99 1014.6
20260830154012 68 249 3.0 6.0 0.00 0.00 0.00 99 1014.6
20260830153508 67 241 3.0 5.0 0.00 0.00 0.00 99 1014.7
20260830153007 67 211 2.0 5.0 0.00 0.00 0.00 99 1014.8
20260830152502 67 253 3.0 6.0 0.00 0.00 0.00 99 1014.7
20260830152000 67 150 1.0 1.0 0.00 0.00 0.00 99 1014.6
20260830151455 66 177 1.0 2.0 0.00 0.00 0.00 99 1015.0
20260830150950 66 77 0.0 0.0 0.00 0.00 0.00 99 1014.7
20260830150449 66 184 1.0 3.0 0.00 0.00 0.00 99 1014.8
20260830145944 66 244 2.0 2.0 0.00 0.00 0.00 99 1014.7
20260830145438 66 125 0.0 1.0 0.00 0.00 0.00 99 1014.8
20260830144934 66 251 1.0 2.0 0.00 0.00 0.00 99 1015.1
20260830144431 66 174 1.0 2.0 0.00 0.00 0.00 99 1015.3
20260830143925 66 251 1.0 3.0 0.00 0.00 0.00 99 1015.2
20260830143420 66 227 2.0 3.0 0.00 0.00 0.00 99 1015.3
20260830142919 66 216 3.0 3.0 0.00 0.00 0.00 99 1015.8
20260830142414 66 148 1.0 2.0 0.00 0.00 0.00 99 1015.8
20260830141909 66 148 2.0 2.0 0.00 0.00 0.00 99 1015.9
20260830141404 65 171 1.0 2.0 0.00 0.00 0.00 99 1015.8
20260830140859 65 132 2.0 3.0 0.00 0.00 0.00 99 1015.8
20260830140354 65 140 1.0 1.0 0.00 0.00 0.00 99 1015.6
20260830135848 65 193 3.0 6.0 0.00 0.00 0.00 99 1015.9
20260830135344 65 160 0.0 0.0 0.00 0.00 0.00 99 1016.1
20260830134839 65 113 3.0 5.0 0.00 0.00 0.00 99 1016.4
20260830134340 65 198 1.0 1.0 0.00 0.00 0.00 99 1016.3
20260830133836 65 157 1.0 1.0 0.00 0.00 0.00 99 1016.5
20260830133331 65 145 1.0 2.0 0.00 0.00 0.00 99 1016.5
20260830132826 65 146 0.0 0.0 0.00 0.00 0.00 99 1016.9
20260830132322 65 131 0.0 0.0 0.00 0.00 0.00 99 1016.9
20260830131821 65 149 0.0 0.0 0.00 0.00 0.00 99 1017.0
20260830131315 65 134 0.0 0.0 0.00 0.00 0.00 99 1017.4
20260830130811 65 165 0.0 1.0 0.00 0.00 0.00 99 1017.8
20260830130306 65 129 0.0 0.0 0.00 0.00 0.00 99 1017.8
20260830125804 65 127 0.0 0.0 0.00 0.00 0.00 99 1017.7
20260830125301 65 119 0.0 0.0 0.00 0.00 0.00 99 1017.8
20260830124758 65 119 0.0 0.0 0.00 0.00 0.00 99 1017.4
20260830124253 65 124 0.0 0.0 0.00 0.00 0.00 99 1017.7
20260830123750 65 153 0.0 0.0 0.00 0.00 0.00 99 1017.3
20260830123246 65 141 0.0 0.0 0.00 0.00 0.00 99 1016.8
20260830122743 65 129 0.0 0.0 0.00 0.00 0.00 99 1016.8
20260830122238 65 137 0.0 0.0 0.00 0.00 0.00 99 1017.2
20260830121734 65 127 0.0 0.0 0.00 0.00 0.00 99 1017.2
20260830121233 65 127 0.0 0.0 0.00 0.00 0.00 99 1017.1
20260830120728 65 126 0.0 0.0 0.00 0.00 0.00 99 1017.0
20260830120224 65 125 0.0 0.0 0.00 0.00 0.00 99 1016.9
20260830115721 65 126 0.0 0.0 0.00 0.00 0.00 99 1017.0
20260830115216 65 113 0.0 0.0 0.00 0.00 0.00 99 1017.0
20260830114713 65 126 0.0 0.0 0.00 0.00 0.00 99 1016.7
20260830114212 65 113 0.0 0.0 0.00 0.00 0.00 99 1016.9
20260830113708 65 154 0.0 0.0 0.00 0.00 0.00 99 1016.9
20260830113202 65 126 0.0 0.0 0.00 0.00 0.00 99 1016.9
20260830112658 65 123 0.0 0.0 0.00 0.00 0.00 99 1017.0
20260830112154 65 126 0.0 0.0 0.00 0.00 0.00 99 1016.5
20260830111650 65 128 0.0 0.0 0.00 0.00 0.00 99 1016.2
20260830111145 65 113 0.0 0.0 0.00 0.00 0.00 99 1016.1
20260830110639 65 129 0.0 0.0 0.00 0.00 0.00 99 1015.8
20260830110136 65 134 0.0 0.0 0.00 0.00 0.00 99 1015.6
20260830105630 65 78 3.0 5.0 0.00 0.00 0.00 99 1015.6
20260830105126 65 129 0.0 0.0 0.00 0.00 0.00 99 1015.7
20260830104623 65 143 0.0 0.0 0.00 0.00 0.00 99 1015.6
20260830104120 65 133 0.0 0.0 0.00 0.00 0.00 99 1015.7
20260830103618 65 125 0.0 0.0 0.00 0.00 0.00 98 1015.6
20260830103113 65 113 0.0 0.0 0.00 0.00 0.00 98 1015.5
20260830102612 65 134 0.0 1.0 0.00 0.00 0.00 98 1015.5
20260830102108 65 216 0.0 0.0 0.00 0.00 0.00 98 1014.7
20260830101604 65 154 1.0 1.0 0.00 0.00 0.00 97 1014.6
20260830101058 65 149 4.0 6.0 0.00 0.00 0.00 97 1014.3
20260830100557 66 167 0.0 1.0 0.00 0.00 0.00 97 1014.2
20260830100056 66 180 0.0 0.0 0.00 0.00 0.00 97 1014.5
20260830095551 66 144 1.0 2.0 0.00 0.00 0.00 96 1014.6
20260830095048 66 145 1.0 2.0 0.00 0.00 0.00 95 1014.7
20260830094543 67 170 1.0 1.0 0.00 0.00 0.00 94 1014.7
20260830094038 67 131 0.0 0.0 0.00 0.00 0.00 94 1014.9
20260830093533 67 179 2.0 2.0 0.00 0.00 0.00 94 1015.1
20260830093030 67 138 1.0 1.0 0.00 0.00 0.00 94 1014.9
20260830092524 67 117 0.0 0.0 0.00 0.00 0.00 94 1015.2
20260830092021 67 133 0.0 0.0 0.00 0.00 0.00 93 1015.5
20260830091516 67 133 0.0 0.0 0.00 0.00 0.00 93 1015.4
20260830091015 67 130 0.0 0.0 0.00 0.00 0.00 93 1015.4
20260830090510 67 140 0.0 0.0 0.00 0.00 0.00 94 1015.4
20260830090005 67 115 0.0 0.0 0.00 0.00 0.00 95 1015.5
20260830085500 67 142 0.0 0.0 0.00 0.00 0.00 95 1015.7
20260830084956 67 136 0.0 0.0 0.00 0.00 0.00 95 1015.4
20260830084451 67 134 2.0 2.0 0.00 0.00 0.00 95 1015.5
20260830083946 67 145 0.0 0.0 0.00 0.00 0.00 95 1015.8
20260830083442 67 150 0.0 0.0 0.00 0.00 0.00 94 1015.9
20260830082941 67 135 0.0 1.0 0.00 0.00 0.00 94 1015.9
20260830082437 67 243 0.0 1.0 0.00 0.00 0.00 94 1016.1
20260830081931 67 139 0.0 0.0 0.00 0.00 0.00 95 1016.1
20260830081426 67 135 0.0 0.0 0.00 0.00 0.00 95 1016.0
20260830080925 67 132 0.0 0.0 0.00 0.00 0.00 95 1016.0
20260830080422 67 143 0.0 0.0 0.00 0.00 0.00 94 1016.1